Lid_Strength_Index
-1 -1 -1 -0 -1 -1 -1 -0 -0 2 1 1 2 2 2 2 3 6 9 6 6 2 3 7 8 8 8 9 8 7 11 12 11 11 11 9 10 9 7 7 6 5 5 4 2
-0 -1 -1 -1 -1 -1 -1 -1 -1 -0 1 1 1 2 2 2 6 8 4 0 1 1 8 9 10 9 11 10 9 9 11 10 10 9 10 9 9 9 9 8 8 7 4 3 3
-0 -1 -1 -1 -1 -1 -1 -1 -0 0 1 1 1 2 2 3 9 9 1 0 0 3 8 8 8 9 11 11 10 9 10 10 9 8 7 9 9 9 9 10 7 8 6 4 4
0 0 -1 -1 -1 -1 -1 -1 -0 0 0 1 2 2 2 6 13 6 0 -1 -0 6 8 9 10 11 12 12 11 10 9 9 8 8 8 9 9 10 9 9 7 5 4 4 4
0 0 0 -1 -1 -1 -1 -1 -1 0 0 1 1 2 4 9 9 4 0 -0 3 6 8 9 10 10 13 12 11 10 10 9 8 8 9 8 9 10 10 9 6 4 4 5 4
0 0 1 0 -1 -1 -1 -1 -1 0 1 1 1 2 7 13 6 4 3 4 4 6 7 8 10 9 12 13 12 11 9 9 9 9 8 9 10 9 9 9 5 5 5 5 4
-0 0 0 0 0 -1 -1 -1 -1 1 1 2 2 4 8 10 6 5 4 4 4 6 7 7 7 10 11 13 12 11 12 11 10 10 10 9 10 10 9 9 7 5 5 5 4
1 0 0 -0 0 0 -1 -1 -1 -0 1 2 2 5 10 5 5 6 6 6 6 6 6 6 7 9 11 12 13 14 13 15 12 10 10 10 13 9 9 9 9 8 7 5 5
1 1 0 0 0 0 0 -1 -1 -1 -0 1 5 6 10 4 6 5 7 7 7 7 7 7 8 10 11 15 17 17 17 15 13 10 12 12 12 10 10 10 10 9 9 7 6
1 1 0 -0 -0 0 0 0 -1 -1 -0 3 4 8 8 10 7 5 6 6 8 8 9 9 11 13 14 16 20 19 17 15 14 12 12 13 13 12 11 11 11 12 10 8 6
1 0 0 -0 -0 -0 1 3 6 6 4 8 9 10 9 7 6 7 6 7 8 10 13 12 14 16 15 14 14 15 14 15 14 12 12 13 13 12 11 12 12 12 11 10 7
-0 -0 -0 -0 -0 -1 2 7 7 7 10 6 7 8 7 7 10 8 6 10 10 13 12 14 16 13 13 13 14 15 15 16 13 11 12 14 13 12 12 11 11 11 11 11 10
-0 -0 -0 -0 -0 1 4 6 3 4 10 8 7 8 9 8 10 10 8 9 12 13 14 15 13 10 12 14 15 16 16 15 14 13 13 14 15 13 11 11 11 10 10 11 10
-0 0 -0 -0 2 3 5 3 3 5 13 11 9 8 7 8 10 7 7 10 12 13 13 13 11 11 12 13 13 15 13 12 13 15 18 16 20 16 14 12 12 11 11 10 11
-0 -0 -0 -0 2 5 4 3 3 6 20 10 9 5 7 9 9 9 7 10 13 14 13 14 13 13 13 12 11 12 11 12 13 15 17 18 20 18 15 14 13 12 11 11 10
-0 0 -0 1 2 2 1 3 5 13 19 13 10 10 10 9 9 8 8 9 11 13 13 14 12 11 11 10 10 11 12 13 14 16 19 17 18 18 16 13 13 12 12 11 11
-0 0 0 0 4 2 2 6 14 18 11 14 14 11 12 12 11 10 11 12 14 17 17 15 14 13 11 12 11 12 14 19 19 20 20 17 18 16 14 13 13 12 12 11 10
0 0 1 1 1 1 4 10 19 15 14 11 12 11 14 12 12 11 12 13 13 15 16 18 18 14 12 12 13 13 14 17 21 20 20 17 20 16 13 13 12 12 12 11 11
1 1 2 2 1 2 8 15 16 14 12 12 12 14 15 12 13 13 13 13 12 13 16 17 17 13 12 11 10 13 15 12 17 21 19 18 17 14 13 12 13 12 11 12 11
3 3 4 1 2 4 11 14 14 11 10 11 15 14 16 14 15 14 14 12 13 11 12 14 17 13 12 11 11 12 11 15 16 22 22 20 19 17 15 13 13 12 12 12 12
3 7 3 1 3 8 13 13 11 9 9 12 13 14 14 14 14 15 15 13 12 11 11 12 14 15 13 14 14 14 15 14 14 16 19 21 19 15 13 13 13 13 11 11 11
5 11 3 2 9 10 12 12 9 10 9 10 11 11 13 12 14 14 15 13 10 10 12 11 13 16 15 12 11 12 13 13 16 18 17 18 18 14 14 13 12 12 11 11 11
13 11 3 4 13 13 11 11 10 10 11 11 12 11 10 12 14 13 13 10 10 9 11 10 15 19 17 14 12 14 14 13 14 15 18 20 18 13 13 12 13 12 11 11 11
12 13 11 6 9 10 11 12 12 10 10 10 10 9 11 12 12 13 12 10 10 10 8 8 12 16 19 17 14 16 14 13 13 17 18 18 16 15 14 13 12 12 11 11 11
13 14 13 13 11 10 10 11 13 13 10 9 11 11 12 14 13 13 11 12 11 9 9 10 17 15 16 14 13 14 14 13 14 14 17 15 16 14 14 12 11 11 11 11 11
13 14 13 11 9 11 10 12 12 12 11 11 12 11 11 13 13 14 12 13 13 12 12 11 19 16 18 14 14 15 14 13 13 13 14 15 16 13 12 12 12 10 10 11 11
11 12 12 11 11 11 12 11 12 11 11 9 10 11 12 11 9 9 8 9 10 11 12 12 16 19 22 17 15 19 15 15 14 13 13 16 13 12 13 12 11 11 11 10 10